STARLINK-35163

Last updated on Mon Oct 06 2025 00:02:05 GMT+0000 (Coordinated Universal Time)

1 65507U 25198R 25278.50001156 .00006253 00000+0 12047-3 0 9992 2 65507 53.1588 280.4499 0001166 78.1036 98.9898 15.49289969 5659

Satellite not in orbit

STARLINK-35163